Location: Brompton
(51.4000°N, 0.5333°E)
Time: 11:53:19
(UTC+00:00)

Cosmos 1898 Rocket - Pass Details

Date: 03 October 2021
Orbit: 752 x 784 km, 74.0° (Epoch: 17 October)

Event Time Altitude Azimuth Distance (km) Brightness Sun altitude
Rises 03:22:43 0° 339° (NNW) 3,272 6.8 -24.9°
Reaches altitude 10° 03:25:26 10° 351° (N) 2,345 6.2 -24.5°
Maximum altitude 03:30:00 28° 50° (NE) 1,441 5.6 -23.9°
Drops below altitude 10° 03:34:34 10° 109° (ESE) 2,343 6.6 -23.2°
Sets 03:37:17 0° 121° (ESE) 3,268 7.3 -22.9°
